Погода в Повалихине

Россия / Костромская область     58°53′25″N   42°50′56″E
темп.,
°C
ветер,
м/с
пор.,
м/с
влажн.,
%
обл.,
%
осадки,
мм/ч
давл.,
гПа
погр.,
м
9 мая, вс
вс900:00+9вюв41268100 0.0 1006506
03:00+9юв41291100 0.6 1005602
06:00+10ююв51194100 0.8 1004715
09:00+10ююв3997100 3.1 1005601
12:00+10ю2699100 6.5 1007381
15:00+9ссз3696100 12.4 1008442
18:00+5ссз51196100 3.5 1011490
21:00+5ссз51092100 6.3 1015794
10 мая, пн
пн1000:00+4ссз41092100 0.3 1017651
03:00+3ссз41289100 0.3 1020605
06:00+3ссз41286100 0.0 1023694
09:00+8с47645 0.0 1025996
12:00+11с34455 0.0 10261547
15:00+13с23395 0.0 10271666
18:00+12с13505 0.0 1028361
21:00+6с116530 0.0 102910
11 мая, вт
вт1100:00+5ссз006920 0.0 103010
03:00+4зюз007255 0.0 103110
06:00+7ю11666 0.0 103257
09:00+13ююз004758 0.0 1032542
12:00+17ю013999 0.0 1031932
15:00+18ююв114098 0.0 10301049
18:00+17вюв015423 0.0 103042
21:00+11вюв116722 0.0 103010
12 мая, ср
ср1200:00+9ююв12756 0.0 103111
03:00+8юв117796 0.0 103110
06:00+11в137163 0.0 1031100
09:00+17вюв24486 0.0 1031523
12:00+20юв23370 0.0 1030973
15:00+22юв23420 0.0 10291280
18:00+21вюв235871 0.0 1028127
21:00+15в227758 0.0 102842
13 мая, чт
чт1300:00+13в258464 0.0 102891
03:00+14в288097 0.0 1028202
06:00+15вюв268329 0.0 1027201
09:00+20юв475534 0.0 1027729
12:00+23ююв474684 0.0 10261781
15:00+24ююв474243 0.0 10251990
18:00+22юв375344 0.0 1023384
21:00+16юв3117298 0.0 1024253